SV2BBO-11 Weather Reports


Display with metric or nautical units.
time (UTC)temp
F
wind
direction
speed
MPH
gust
MPH
rain 1hr
in
rain 24hr
in
rain mn
in
humidity
%
barometer
mb
20260505012839 53 0 0.0 0.0 0.00 0.00 0.00 66 1016.2
20260505010339 54 0 0.0 0.0 0.00 0.00 0.00 66 1016.2
20260505005430 54 0 0.0 0.0 0.00 0.00 0.00 65 1016.2
20260505004430 54 0 0.0 0.0 0.00 0.00 0.00 65 1016.2
20260505002930 54 0 0.0 0.0 0.00 0.00 0.00 65 1016.3
20260505001021 55 0 0.0 0.0 0.00 0.00 0.00 63 1016.2
20260504235521 55 0 0.0 0.0 0.00 0.00 0.00 63 1016.3
20260504234521 55 0 0.0 0.0 0.00 0.00 0.00 63 1016.3
20260504233021 55 0 0.0 0.0 0.00 0.00 0.00 62 1016.4
20260504232521 56 0 0.0 0.0 0.00 0.00 0.00 61 1016.5
20260504232021 56 0 0.0 0.0 0.00 0.00 0.00 61 1016.5
20260504231521 56 0 0.0 0.0 0.00 0.00 0.00 60 1016.5
20260504221521 57 0 0.0 0.0 0.00 0.00 0.00 59 1016.7
20260504220521 57 0 0.0 1.0 0.00 0.00 0.00 59 1016.7
20260504215521 57 0 0.0 0.0 0.00 0.00 0.00 59 1016.9
20260504215021 57 0 0.0 1.0 0.00 0.00 0.00 58 1016.7
20260504205803 58 0 0.0 0.0 0.00 0.00 0.00 57 1016.4
20260504205307 58 0 0.0 0.0 0.00 0.00 0.00 57 1016.5
20260504202300 59 0 0.0 0.0 0.00 0.00 0.00 54 1016.4
20260504050257 51 0 0.0 0.0 0.00 0.00 0.00 58 1019.7
20260504045757 51 0 0.0 0.0 0.00 0.00 0.00 61 1019.7
20260504044757 50 0 0.0 0.0 0.00 0.00 0.00 62 1019.6
20260504044259 50 0 0.0 1.0 0.00 0.00 0.00 62 1019.6
20260504043258 49 0 0.0 0.0 0.00 0.00 0.00 65 1019.5
20260504042757 49 0 0.0 3.0 0.00 0.00 0.00 66 1019.4
20260504041257 47 0 0.0 0.0 0.00 0.00 0.00 67 1019.5
20260504040757 47 0 0.0 0.0 0.00 0.00 0.00 67 1019.5
20260504040257 47 0 0.0 0.0 0.00 0.00 0.00 67 1019.5
20260504035757 47 0 0.0 0.0 0.00 0.00 0.00 67 1019.4